Temp
-4 -4 -4 -4 -4 -4 -4 -4 -4 -4 -4 -4 -4 -4 -3 -3 -3 -3 -4 -4 -4 -5 -5 -5 -5 -4 -5 -5 -5 -5 -5 -4 -5 -5 -5 -5 -5 -5 -5 -5 -6 -7 -6 -7 -8
-3 -3 -4 -4 -4 -4 -4 -4 -4 -4 -4 -4 -4 -4 -4 -3 -3 -3 -3 -3 -4 -4 -5 -5 -5 -5 -4 -4 -5 -5 -5 -4 -4 -5 -5 -5 -5 -5 -5 -5 -6 -6 -7 -8 -7
-3 -3 -3 -3 -3 -3 -4 -4 -4 -4 -4 -4 -4 -4 -4 -4 -4 -3 -3 -4 -4 -4 -4 -5 -5 -5 -5 -5 -5 -5 -5 -4 -4 -5 -5 -5 -5 -5 -5 -6 -6 -6 -7 -7 -7
-3 -3 -3 -3 -3 -3 -3 -3 -4 -3 -4 -4 -4 -4 -4 -4 -4 -4 -3 -3 -4 -4 -4 -5 -5 -4 -5 -5 -5 -5 -5 -5 -5 -5 -5 -5 -5 -5 -5 -5 -6 -6 -6 -6 -7
-3 -3 -3 -3 -3 -3 -3 -3 -3 -3 -3 -3 -3 -4 -4 -4 -4 -4 -3 -3 -4 -4 -4 -4 -5 -5 -5 -5 -5 -6 -6 -6 -6 -6 -6 -5 -5 -5 -5 -5 -5 -6 -6 -6 -6
-3 -3 -3 -3 -3 -3 -3 -3 -3 -3 -3 -3 -3 -3 -4 -4 -4 -4 -4 -4 -4 -4 -4 -4 -5 -5 -5 -5 -6 -6 -6 -6 -6 -6 -6 -6 -5 -5 -5 -5 -5 -6 -6 -6 -6
-3 -3 -3 -3 -3 -3 -3 -3 -3 -3 -3 -3 -3 -3 -3 -3 -4 -4 -4 -4 -4 -4 -4 -5 -4 -5 -5 -5 -5 -6 -6 -6 -6 -6 -6 -6 -6 -6 -6 -5 -5 -5 -6 -6 -6
-4 -3 -3 -3 -3 -3 -3 -3 -3 -3 -3 -3 -3 -3 -3 -3 -3 -4 -4 -4 -4 -4 -4 -4 -4 -4 -5 -5 -5 -5 -6 -6 -6 -6 -6 -6 -6 -6 -6 -6 -6 -5 -5 -6 -6
-4 -4 -4 -4 -3 -3 -3 -3 -3 -3 -3 -3 -3 -3 -3 -3 -3 -4 -4 -4 -4 -4 -4 -4 -4 -5 -5 -6 -6 -6 -6 -6 -6 -6 -6 -6 -6 -6 -6 -6 -6 -6 -6 -5 -6
-4 -4 -4 -4 -4 -4 -4 -4 -4 -3 -3 -3 -3 -3 -4 -4 -4 -4 -4 -4 -4 -4 -4 -4 -5 -5 -5 -6 -6 -6 -6 -6 -6 -6 -6 -6 -6 -6 -6 -7 -7 -6 -6 -6 -6
-5 -5 -4 -5 -5 -5 -4 -4 -4 -4 -4 -4 -4 -4 -4 -4 -4 -4 -4 -4 -4 -4 -4 -4 -5 -5 -6 -5 -6 -6 -6 -6 -5 -6 -6 -6 -6 -6 -7 -7 -7 -7 -7 -6 -5
-5 -5 -5 -5 -5 -5 -5 -5 -5 -5 -5 -4 -4 -4 -4 -5 -5 -5 -5 -4 -4 -4 -5 -4 -5 -6 -5 -5 -5 -6 -6 -6 -5 -5 -6 -6 -6 -6 -7 -7 -7 -7 -7 -6 -6
-6 -6 -6 -6 -6 -5 -5 -5 -5 -5 -5 -5 -5 -5 -5 -5 -5 -5 -5 -5 -5 -5 -5 -5 -6 -5 -5 -6 -5 -5 -6 -6 -6 -5 -5 -5 -6 -6 -6 -7 -7 -7 -7 -6 -6
-6 -6 -6 -6 -6 -6 -6 -6 -6 -6 -6 -5 -5 -6 -6 -6 -5 -5 -6 -6 -6 -6 -6 -5 -6 -5 -5 -6 -6 -6 -6 -6 -5 -5 -5 -5 -5 -6 -6 -7 -7 -7 -7 -6 -6
-7 -6 -7 -7 -7 -6 -7 -6 -6 -6 -6 -6 -6 -6 -6 -6 -6 -6 -6 -6 -6 -6 -6 -6 -6 -6 -5 -6 -7 -7 -6 -6 -5 -5 -5 -5 -5 -6 -6 -6 -6 -6 -6 -5 -5
-6 -6 -6 -7 -7 -6 -7 -6 -7 -7 -6 -6 -6 -6 -6 -6 -6 -6 -6 -6 -6 -6 -6 -6 -6 -6 -5 -7 -7 -7 -6 -5 -5 -5 -5 -5 -5 -6 -5 -6 -6 -6 -6 -5 -5
-6 -6 -6 -6 -7 -7 -7 -6 -7 -7 -7 -6 -6 -6 -6 -6 -7 -6 -6 -7 -7 -7 -7 -6 -6 -6 -6 -6 -6 -7 -7 -6 -5 -5 -6 -5 -5 -5 -5 -6 -6 -6 -6 -5 -5
-6 -6 -6 -7 -7 -7 -7 -7 -7 -7 -7 -7 -7 -7 -7 -7 -7 -7 -7 -7 -6 -6 -6 -6 -7 -6 -6 -6 -6 -7 -8 -7 -6 -5 -6 -6 -5 -5 -5 -5 -5 -6 -5 -5 -5
-6 -7 -7 -7 -7 -7 -7 -7 -7 -7 -7 -7 -7 -7 -7 -7 -7 -7 -7 -7 -7 -7 -7 -7 -7 -7 -7 -7 -7 -7 -8 -8 -7 -6 -6 -6 -5 -5 -5 -5 -5 -5 -5 -5 -5
-7 -7 -7 -7 -7 -7 -7 -7 -7 -7 -7 -7 -8 -8 -7 -7 -7 -7 -7 -7 -7 -7 -6 -7 -7 -7 -7 -7 -7 -7 -8 -8 -8 -7 -6 -6 -5 -5 -6 -6 -5 -6 -5 -5 -5
-7 -7 -7 -7 -7 -7 -7 -7 -7 -7 -7 -7 -8 -8 -8 -8 -8 -8 -8 -9 -9 -8 -8 -7 -7 -7 -7 -7 -7 -7 -7 -8 -8 -8 -7 -6 -5 -6 -5 -6 -6 -6 -6 -5 -5
-8 -7 -8 -8 -7 -7 -7 -7 -7 -7 -7 -7 -8 -8 -8 -8 -8 -9 -9 -8 -9 -9 -9 -9 -8 -8 -7 -8 -8 -8 -8 -8 -8 -8 -8 -7 -6 -6 -6 -6 -6 -6 -6 -6 -5
-8 -8 -8 -8 -8 -8 -7 -7 -7 -7 -7 -7 -7 -8 -8 -8 -8 -9 -9 -9 -9 -9 -9 -9 -9 -9 -8 -8 -8 -9 -9 -8 -8 -8 -8 -8 -7 -6 -6 -6 -6 -6 -6 -6 -6
-8 -8 -8 -8 -8 -8 -8 -8 -8 -8 -7 -7 -8 -8 -8 -8 -9 -8 -9 -9 -9 -9 -9 -9 -9 -9 -8 -8 -8 -9 -9 -8 -8 -8 -8 -8 -8 -6 -6 -6 -6 -6 -6 -6 -5
-11 -10 -9 -9 -9 -8 -9 -8 -8 -8 -8 -8 -8 -8 -8 -8 -8 -9 -9 -9 -9 -9 -9 -9 -9 -9 -9 -9 -9 -9 -9 -9 -8 -8 -8 -8 -7 -7 -7 -6 -6 -6 -7 -6 -6
-12 -12 -11 -11 -10 -9 -9 -9 -9 -8 -9 -8 -8 -8 -8 -8 -9 -9 -10 -10 -9 -9 -9 -9 -9 -9 -9 -9 -9 -9 -9 -9 -8 -8 -8 -8 -8 -7 -7 -6 -6 -6 -7 -6 -6
-12 -12 -12 -12 -12 -11 -10 -10 -9 -9 -9 -9 -8 -8 -8 -8 -8 -9 -9 -10 -10 -10 -10 -9 -9 -9 -9 -9 -9 -9 -9 -9 -8 -8 -8 -8 -7 -7 -7 -7 -6 -6 -7 -6 -6
Height
5929 5929 5929 5930 5930 5931 5931 5931 5930 5930 5930 5930 5930 5931 5931 5930 5929 5929 5929 5929 5927 5924 5923 5922 5921 5920 5919 5918 5917 5916 5918 5918 5918 5917 5917 5917 5917 5916 5915 5914 5914 5913 5913 5914 5914
5926 5926 5927 5927 5928 5928 5929 5929 5929 5929 5929 5929 5929 5931 5931 5931 5930 5930 5931 5930 5930 5928 5926 5925 5925 5924 5922 5921 5919 5919 5919 5920 5920 5918 5918 5919 5919 5918 5919 5918 5917 5917 5916 5917 5919
5923 5924 5924 5925 5925 5925 5925 5926 5926 5926 5927 5927 5928 5928 5930 5931 5932 5931 5931 5932 5931 5930 5929 5929 5928 5927 5924 5923 5922 5920 5921 5921 5921 5921 5921 5921 5920 5920 5920 5920 5919 5920 5920 5920 5921
5919 5920 5921 5922 5922 5922 5922 5923 5923 5923 5925 5925 5926 5927 5928 5929 5932 5931 5931 5931 5932 5931 5931 5930 5930 5929 5927 5926 5925 5924 5923 5923 5923 5923 5923 5922 5923 5922 5922 5922 5922 5923 5923 5923 5923
5916 5916 5917 5917 5918 5919 5919 5919 5920 5921 5922 5923 5924 5925 5925 5927 5929 5931 5931 5931 5932 5932 5932 5932 5933 5932 5931 5929 5928 5926 5926 5925 5924 5925 5925 5925 5925 5924 5924 5924 5925 5925 5925 5926 5926
5911 5912 5912 5913 5914 5914 5915 5915 5916 5917 5918 5920 5921 5923 5923 5925 5926 5928 5929 5930 5931 5931 5932 5933 5934 5933 5932 5931 5930 5930 5928 5927 5926 5927 5928 5928 5927 5926 5926 5926 5927 5927 5927 5928 5930
5906 5907 5907 5908 5908 5909 5910 5910 5911 5912 5914 5915 5917 5919 5920 5923 5923 5925 5926 5928 5930 5931 5932 5933 5935 5934 5934 5934 5933 5932 5932 5931 5930 5930 5931 5930 5929 5928 5927 5928 5928 5928 5928 5929 5930
5901 5902 5902 5902 5903 5904 5904 5905 5905 5906 5908 5909 5911 5914 5916 5918 5919 5921 5924 5924 5927 5929 5930 5932 5934 5934 5934 5935 5935 5934 5934 5934 5934 5934 5934 5933 5932 5931 5929 5929 5929 5929 5929 5930 5930
5897 5896 5896 5896 5896 5898 5899 5899 5899 5901 5901 5903 5905 5908 5911 5913 5915 5915 5919 5921 5925 5928 5929 5930 5932 5933 5933 5935 5936 5934 5934 5934 5935 5936 5936 5936 5935 5933 5932 5930 5929 5929 5931 5931 5930
5891 5891 5891 5891 5891 5892 5893 5893 5893 5894 5896 5897 5899 5903 5906 5907 5909 5911 5913 5917 5921 5926 5928 5929 5931 5933 5933 5932 5933 5934 5935 5934 5934 5937 5937 5938 5937 5936 5935 5934 5932 5931 5932 5932 5931
5886 5886 5885 5886 5886 5886 5887 5887 5890 5890 5890 5892 5893 5895 5898 5901 5903 5906 5908 5911 5915 5922 5926 5927 5929 5932 5931 5931 5932 5934 5934 5935 5936 5937 5938 5938 5939 5938 5937 5935 5934 5932 5932 5932 5932
5881 5880 5881 5880 5880 5880 5880 5882 5882 5884 5885 5886 5887 5889 5891 5894 5897 5900 5903 5908 5911 5915 5921 5926 5927 5927 5929 5931 5932 5933 5935 5935 5936 5936 5937 5938 5939 5939 5938 5937 5936 5934 5932 5931 5931
5877 5877 5877 5875 5875 5875 5875 5876 5876 5877 5880 5882 5881 5885 5887 5889 5891 5895 5898 5902 5905 5908 5915 5921 5921 5923 5927 5929 5932 5933 5935 5934 5936 5936 5936 5937 5938 5937 5938 5937 5936 5935 5933 5932 5931
5874 5874 5874 5873 5873 5872 5871 5871 5871 5873 5875 5878 5878 5881 5883 5885 5887 5890 5893 5898 5900 5904 5907 5914 5917 5919 5924 5926 5929 5931 5932 5932 5933 5936 5937 5937 5938 5938 5938 5938 5937 5935 5933 5932 5931
5872 5872 5871 5871 5870 5870 5869 5868 5868 5869 5871 5873 5874 5878 5879 5883 5885 5887 5889 5891 5895 5899 5902 5909 5913 5914 5920 5924 5926 5928 5929 5932 5933 5935 5936 5937 5938 5939 5939 5938 5938 5936 5934 5932 5931
5869 5868 5869 5869 5867 5868 5867 5866 5867 5868 5867 5869 5870 5873 5876 5878 5881 5883 5885 5888 5889 5892 5896 5900 5905 5910 5915 5917 5920 5922 5926 5929 5931 5933 5934 5935 5938 5939 5939 5939 5939 5937 5935 5933 5932
5864 5864 5864 5864 5865 5864 5864 5865 5866 5865 5867 5867 5868 5870 5873 5875 5877 5879 5882 5884 5887 5889 5892 5895 5898 5904 5909 5911 5914 5919 5922 5926 5929 5931 5934 5934 5936 5938 5938 5938 5937 5937 5934 5932 5931
5858 5858 5858 5859 5859 5860 5860 5862 5862 5863 5864 5865 5866 5867 5870 5871 5873 5875 5878 5881 5883 5886 5888 5890 5893 5899 5904 5908 5912 5914 5918 5921 5924 5927 5931 5930 5934 5935 5936 5936 5935 5934 5933 5932 5930
5850 5851 5852 5852 5853 5854 5856 5857 5858 5860 5861 5862 5864 5865 5866 5868 5870 5872 5874 5876 5878 5882 5884 5886 5889 5893 5897 5902 5906 5909 5911 5918 5919 5921 5923 5927 5930 5932 5933 5933 5933 5932 5931 5930 5930
5841 5843 5844 5845 5846 5848 5850 5852 5853 5855 5857 5859 5860 5862 5864 5865 5867 5869 5871 5874 5875 5877 5879 5882 5884 5886 5889 5894 5898 5902 5910 5913 5914 5916 5919 5922 5925 5929 5930 5930 5930 5929 5929 5929 5928
5833 5834 5836 5837 5839 5841 5843 5845 5847 5849 5852 5855 5856 5858 5861 5863 5865 5866 5869 5871 5872 5874 5876 5878 5880 5882 5884 5887 5892 5897 5901 5906 5910 5912 5914 5916 5920 5924 5926 5926 5927 5927 5927 5928 5927
5823 5824 5826 5828 5831 5833 5835 5838 5841 5843 5845 5848 5851 5854 5857 5860 5862 5864 5866 5868 5871 5873 5875 5876 5876 5877 5881 5883 5888 5891 5897 5902 5905 5909 5910 5910 5913 5917 5919 5920 5924 5925 5924 5926 5926
5809 5812 5814 5817 5820 5823 5826 5829 5833 5835 5838 5841 5844 5848 5851 5855 5859 5862 5863 5866 5869 5871 5873 5874 5875 5875 5876 5880 5883 5887 5892 5897 5900 5903 5903 5905 5907 5913 5913 5915 5918 5921 5922 5923 5923
5795 5796 5801 5804 5808 5811 5815 5819 5822 5826 5829 5833 5838 5841 5844 5849 5853 5856 5860 5863 5865 5868 5870 5871 5873 5873 5875 5878 5881 5884 5888 5892 5895 5898 5900 5901 5903 5906 5907 5911 5914 5917 5919 5919 5922
5775 5779 5782 5788 5793 5798 5803 5808 5812 5816 5819 5824 5829 5831 5836 5842 5846 5850 5854 5857 5860 5863 5865 5868 5871 5872 5873 5875 5878 5881 5884 5887 5890 5894 5895 5899 5898 5901 5903 5906 5909 5912 5914 5916 5920
5763 5764 5767 5770 5776 5782 5788 5795 5800 5804 5809 5812 5817 5822 5828 5834 5839 5846 5849 5852 5855 5859 5861 5864 5867 5869 5871 5873 5875 5877 5879 5882 5885 5888 5890 5893 5896 5897 5897 5901 5905 5908 5910 5913 5917
5753 5753 5754 5757 5761 5766 5772 5779 5786 5792 5797 5801 5807 5812 5818 5825 5831 5836 5841 5847 5849 5852 5856 5859 5862 5865 5867 5869 5870 5872 5874 5876 5880 5883 5887 5890 5893 5892 5892 5896 5901 5905 5908 5911 5914
Wind_Speed
13 16 17 16 14 13 12 9 8 8 6 7 8 8 7 11 7 8 10 13 17 13 10 12 14 15 14 10 9 8 6 8 10 12 12 10 14 14 17 18 19 19 20 16 16
13 13 13 15 16 16 16 16 14 12 12 10 11 7 4 6 6 7 7 9 12 12 10 10 11 13 13 12 9 9 7 7 9 12 12 11 9 11 12 13 14 15 15 14 13
14 14 14 14 14 13 13 12 14 16 15 14 13 12 8 4 3 5 5 7 8 11 12 8 9 11 12 12 10 9 10 9 9 9 8 9 10 10 9 11 11 10 12 14 11
18 17 16 15 16 16 15 15 14 12 11 12 11 12 11 9 4 2 2 2 6 7 8 12 9 11 12 12 13 14 12 12 13 10 8 10 7 9 10 10 7 8 5 9 12
22 22 21 20 19 18 18 18 17 16 15 14 13 12 11 11 7 5 3 1 3 3 5 8 8 8 11 13 15 16 14 16 15 11 10 9 10 9 8 9 6 5 6 5 9
22 23 24 24 24 23 23 22 21 20 19 18 16 15 14 13 9 8 7 4 3 3 1 5 8 7 7 11 16 17 14 15 16 13 11 10 9 11 10 8 6 4 2 2 3
21 22 23 24 25 26 26 26 25 25 23 22 21 18 17 15 14 12 10 9 6 5 4 3 4 8 8 12 16 19 18 18 18 16 15 12 11 11 10 10 9 8 5 1 2
23 24 24 24 25 25 25 26 27 27 26 26 25 22 21 18 19 18 14 14 12 8 7 6 3 6 10 10 10 16 18 18 16 15 15 16 15 14 12 9 8 7 6 4 3
22 24 24 24 25 25 24 26 26 26 27 27 27 25 23 24 22 24 20 18 14 11 9 8 6 4 4 6 9 14 16 14 13 14 12 13 14 17 15 14 14 12 6 2 1
24 25 24 24 24 23 22 24 24 25 26 27 28 26 24 25 26 26 26 21 17 12 12 11 10 8 6 7 13 16 13 10 9 10 13 14 16 16 16 14 13 10 10 7 4
24 24 23 22 23 23 24 24 24 22 22 22 24 25 25 26 28 28 29 26 23 18 15 14 12 12 12 10 14 12 11 7 8 10 11 11 12 11 10 12 12 10 8 8 7
21 21 21 21 22 23 23 22 23 23 22 21 20 21 21 25 27 28 30 28 25 22 17 17 14 20 15 14 13 18 9 3 1 10 10 7 8 1 7 9 10 12 10 9 10
16 16 16 18 19 21 20 20 21 21 20 17 22 17 17 20 25 27 27 27 27 27 23 18 23 21 19 18 16 15 14 11 8 10 11 7 5 4 6 7 9 9 8 7 9
13 12 11 12 13 14 14 16 16 17 19 17 21 16 17 17 20 23 25 26 26 27 26 25 26 24 22 22 19 17 16 15 11 10 10 9 8 8 6 5 5 8 9 7 7
13 12 10 9 11 10 12 12 12 15 18 19 20 17 17 16 15 16 21 23 23 26 29 24 25 29 24 25 25 24 21 18 15 11 14 9 11 12 8 3 5 10 10 7 8
16 18 14 14 14 13 12 12 11 12 15 18 21 21 20 19 16 16 17 19 23 23 25 28 29 31 28 32 32 30 25 21 17 13 13 17 14 15 9 3 5 12 14 11 9
20 21 20 20 19 17 16 14 12 12 12 15 17 17 17 20 20 17 18 17 17 19 19 23 28 30 32 34 34 32 27 24 20 16 9 11 12 16 8 5 2 8 13 8 7
26 24 23 21 21 20 20 18 16 14 13 12 14 12 11 14 19 20 19 17 15 15 19 23 26 26 30 32 33 34 31 25 22 19 16 18 14 16 12 9 3 5 12 11 6
28 28 26 24 23 22 22 21 19 17 15 15 16 14 12 12 16 19 19 18 18 16 17 19 21 25 28 32 34 35 37 27 26 25 25 23 14 23 19 15 10 8 8 7 5
32 29 29 27 24 23 24 22 22 21 19 18 20 18 14 12 13 16 16 15 14 16 16 16 20 24 29 32 34 36 33 34 32 31 28 23 23 21 19 16 14 6 13 12 14
36 33 31 30 29 26 25 26 25 23 22 21 22 21 18 13 14 16 15 15 15 14 13 15 17 22 28 32 32 33 35 36 33 34 30 27 23 19 18 22 17 8 12 10 11
38 39 36 34 33 30 28 29 28 26 26 25 25 24 21 19 13 19 17 17 15 11 9 8 12 20 26 30 32 32 32 35 35 32 30 31 26 17 18 25 18 11 14 12 12
46 42 41 40 38 35 33 32 31 32 31 29 28 27 25 23 18 16 23 20 19 15 11 9 7 13 23 29 33 34 33 35 34 33 33 32 28 15 21 28 21 16 13 16 13
49 49 44 43 44 42 38 37 36 36 35 33 31 31 28 25 22 20 17 21 23 19 18 11 11 5 14 18 27 33 35 35 37 35 28 29 29 16 24 28 23 18 14 19 10
44 48 50 47 46 47 44 41 39 38 39 38 36 36 34 30 27 24 21 17 16 19 18 17 15 11 13 16 18 24 31 34 36 28 31 26 25 19 26 28 26 22 16 19 10
29 36 45 46 48 47 49 47 43 43 41 43 42 39 36 34 33 27 27 25 22 17 17 18 18 20 15 17 21 25 28 29 29 29 26 25 18 12 21 31 28 24 17 21 17
31 30 29 39 45 47 47 50 49 45 45 45 45 43 39 37 35 34 32 30 27 26 21 22 22 22 23 18 16 21 30 30 29 26 25 19 15 15 14 34 27 23 19 19 16
Wind_Direction
267 264 264 266 269 270 269 272 283 297 315 337 352 24 27 34 43 54 55 43 40 54 58 68 68 81 96 114 123 110 110 105 101 98 104 98 96 90 79 79 81 76 78 86 91
270 272 272 267 264 269 269 262 263 271 284 294 307 325 346 17 39 42 64 55 45 53 49 48 56 59 74 83 110 120 116 113 116 104 105 111 106 96 86 82 85 79 88 86 84
271 271 270 270 268 269 274 275 265 263 267 278 286 292 297 288 5 7 23 78 58 53 73 69 63 59 63 62 67 88 107 102 99 111 108 102 104 106 102 95 96 103 104 113 104
271 271 270 268 268 267 268 269 269 269 266 270 276 279 275 276 293 326 340 83 90 84 73 62 56 60 70 73 83 79 85 86 85 96 103 101 105 97 97 95 98 125 122 108 128
268 268 267 269 267 267 267 266 266 268 265 267 268 270 274 270 267 245 228 257 134 113 100 80 89 80 91 87 80 76 73 81 86 89 94 96 100 100 95 98 104 118 153 183 164
267 267 267 267 266 266 265 264 264 263 264 263 263 264 263 266 260 256 241 236 221 180 118 76 98 84 92 115 95 88 83 86 90 91 92 93 94 95 93 91 99 107 124 176 212
272 270 267 264 263 263 262 263 263 263 262 260 259 256 257 257 259 250 243 228 227 199 179 162 108 106 114 116 117 108 101 97 94 97 101 102 93 85 83 94 101 96 83 232 240
276 273 270 268 266 263 262 261 261 260 259 258 257 252 247 244 249 249 241 237 222 214 202 195 203 111 140 120 118 116 115 107 100 105 104 99 95 87 80 70 69 88 101 109 108
278 276 274 272 270 268 267 265 262 259 258 257 254 252 243 242 238 248 245 243 239 219 212 211 187 176 130 161 155 136 125 118 109 106 109 102 94 88 83 70 52 38 47 48 57
276 277 276 273 272 271 266 264 264 263 260 258 255 251 242 239 235 238 246 243 240 219 212 220 194 202 176 180 184 159 151 152 137 111 105 99 101 89 68 47 42 32 30 33 18
276 275 276 276 274 274 269 266 265 263 260 257 255 250 240 234 233 233 237 239 237 224 200 216 207 189 188 187 191 179 178 166 158 139 122 107 119 95 62 52 28 19 8 17 18
279 276 277 276 276 274 273 271 265 260 258 254 251 244 239 233 228 231 235 239 239 237 211 203 206 196 195 183 191 209 195 142 127 156 160 146 159 87 65 51 23 13 356 5 9
278 280 285 283 278 275 277 273 267 258 251 250 247 243 236 231 229 227 232 232 234 233 221 200 200 212 194 193 186 196 207 225 213 176 178 178 187 114 76 33 16 14 2 3 356
284 287 290 289 289 287 284 272 264 250 243 242 243 230 226 224 228 231 231 232 230 235 234 209 198 215 197 198 197 198 205 202 210 191 180 170 151 152 119 57 1 330 352 1 352
285 285 288 291 296 300 287 281 265 245 239 234 230 228 228 224 222 221 225 231 229 226 232 228 206 215 208 195 196 199 209 215 214 224 217 193 176 176 172 151 348 348 333 348 342
277 278 277 280 282 285 287 286 272 248 236 233 234 228 224 227 221 216 219 222 232 234 228 224 216 213 216 200 203 213 217 217 223 232 247 234 196 192 218 143 23 354 342 311 311
275 273 274 275 275 277 272 272 269 257 248 245 242 242 235 229 226 221 220 219 226 232 234 234 227 215 216 219 213 211 219 220 220 224 219 217 208 209 220 170 356 339 326 309 292
269 268 269 267 271 270 265 259 258 256 250 251 244 249 238 229 231 230 224 226 226 225 228 226 227 223 220 222 223 212 212 218 227 229 229 240 233 205 217 230 234 314 321 303 277
268 265 262 263 263 265 258 253 251 249 246 239 240 243 238 241 236 232 226 225 226 220 222 226 229 224 219 222 225 220 209 215 229 236 242 238 222 208 210 228 250 280 290 288 247
269 263 260 257 256 256 250 246 245 245 239 229 234 238 240 250 249 238 235 231 224 232 229 225 221 221 220 222 224 225 217 222 227 240 247 249 238 215 225 237 243 268 300 240 271
269 264 258 253 252 248 243 242 241 240 237 227 230 234 233 233 234 227 221 202 216 228 244 245 230 221 219 223 228 229 227 224 229 239 246 255 248 250 234 229 238 232 283 255 277
268 264 258 252 249 246 240 237 237 237 240 236 229 229 225 221 208 218 209 214 218 223 244 239 233 225 219 220 222 226 226 233 238 242 250 260 256 268 222 219 224 217 259 256 286
268 264 258 253 248 244 240 236 234 234 237 239 236 232 228 221 214 205 215 215 211 210 222 226 243 235 220 220 220 221 225 230 239 245 251 260 267 264 233 215 212 210 239 267 262
264 261 256 252 249 244 239 236 232 232 233 236 236 240 237 229 225 225 210 213 220 219 219 217 239 249 236 234 226 225 228 234 240 247 255 259 272 258 231 210 214 208 228 253 230
256 253 252 251 245 243 239 236 234 231 230 233 231 234 236 235 228 225 230 237 217 219 224 237 218 235 196 207 218 226 235 238 245 244 249 254 264 275 220 204 203 206 217 230 239
274 266 252 244 244 240 237 234 233 231 229 229 230 231 233 234 234 230 229 234 244 234 220 224 222 226 229 218 220 225 230 233 243 245 245 245 270 294 226 206 201 206 208 217 199
267 273 268 260 244 238 237 232 231 231 228 228 227 229 230 231 232 233 233 231 238 239 227 222 226 225 235 246 246 247 234 233 232 241 233 249 274 283 266 205 205 211 208 207 237